User: anonymous   Login
Location: Unspecified
(0.0000°N, 0.0000°E)
Time: 15:35:31
(UTC+01:00)
Language:

DFH-1 - Orbit

View from above orbital plane
View from above orbital plane
View from above satellite
View from above satellite

Ground track
Ground track

The orbit data is extracted from the following two-line orbital elements,

1 04382U 70034A   21342.87173105 -.00000212  00000-0 -17534-4 0  9996
2 04382  68.4193 172.7762 1049852  20.2467 343.7160 13.08226397429237
Epoch (UTC): 08 December 2021 20:55:17
Eccentricity: 0.1049852
inclination: 68.4193°
perigee height: 431 km
apogee height: 2029 km
right ascension of ascending node: 172.7762°
argument of perigee: 20.2467°
revolutions per day: 13.08226397
mean anomaly at epoch: 343.7160°
orbit number at epoch: 42923

The dashed part of the orbit path shows where the satellite is in the earth's shadow,  

DLR